Location: *
(43.0833°N, 13.0500°E)
Time: 07:26:24
(UTC+00:00)

Geosat - Pass Details

Date: 15 November 2019
Orbit: 763 x 766 km, 108.0° (Epoch: 14 December)

Event Time Altitude Azimuth Distance (km) Brightness Sun altitude
Exits shadow 16:53:27 - 26° (NNE) 2,871 6.6 -12.7°
Reaches altitude 10° 16:54:49 10° 26° (NNE) 2,313 6.1 -13.0°
Maximum altitude 16:59:52 85° 299° (WNW) 775 4.0 -13.9°
Drops below altitude 10° 17:04:53 10° 211° (SSW) 2,298 7.1 -14.8°
Sets 17:07:09 0° 210° (SSW) 3,220 7.9 -15.2°
